Погода в Риу-Клару

Бразилия     22°26′55″S   47°34′14″W
темп.,
°C
ветер,
м/с
пор.,
м/с
влажн.,
%
обл.,
%
осадки,
мм/ч
давл.,
гПа
погр.,
м
26 февраля, пт
пт2600:00+19юв119514 1.1 101223
03:00+18ююз11978 1.4 101127
06:00+17юз01989 0.0 101126
09:00+22всв138413 0.1 1013543
12:00+26св127185 0.3 1012888
15:00+26ссв227662 5.0 1010699
18:00+23в228897 8.3 101066
21:00+21ссв229099 12.7 101377
27 февраля, сб
сб2700:00+19в249695 1.2 1013151
03:00+19в129695 2.2 101287
06:00+18юв119674 0.0 101324
09:00+21юв238873 0.5 1015296
12:00+25св347722 3.9 1013859
15:00+25св458227 8.4 1011777
18:00+22в249274 7.4 1011138
21:00+20вюв379387 10.4 1013184
28 февраля, вс
вс2800:00+20в2794100 0.4 1014218
03:00+19всв129584 0.4 101352
06:00+19всв249474 0.0 1014118
09:00+23всв368270 0.0 1015523
12:00+25св476932 0.0 1014994
15:00+25ссв466731 0.1 1011800
18:00+23всв127854 0.0 101139
21:00+21в127671 0.0 101323
1 марта, пн
пн100:00+21ссв1283100 0.1 101338
03:00+20с1179100 0.1 101223
06:00+19св1294100 0.0 101340
09:00+23ссв357790 0.0 1014624
12:00+26ссв467140 1.1 10131052
15:00+28ссв456139 1.2 10101386
18:00+25с12758 0.0 101030
21:00+21ссв128638 0.0 101223
2 марта, вт
вт200:00+20ссв228888 0.0 101336
03:00+20св239193 0.0 101264
06:00+19св2293100 0.0 101457
09:00+23ссв4976100 0.0 1015641
12:00+26ссв467292 0.8 1014906
15:00+26ссв347891 4.7 1012651
18:00+22юв1186100 2.7 101223
21:00+22св129099 3.1 101424